Location: Wellington
(41.3000°S, 174.7830°E)
Time: 17:19:57
(UTC+12:00)

Resurs 01 Rocket - Pass Details

Date: 24 January 2019
Orbit: 634 x 645 km, 98.1° (Epoch: 17 April)

Event Time Altitude Azimuth Distance (km) Brightness Sun altitude
Rises 23:12:24 0° 178° (S) 2,979 5.9 -21.3°
Reaches altitude 10° 23:14:49 10° 188° (S) 2,059 5.1 -21.5°
Maximum altitude 23:18:44 30° 249° (WSW) 1,149 3.4 -22.0°
Drops below altitude 10° 23:22:37 10° 310° (NW) 2,031 4.1 -22.4°
Enters shadow 23:23:17 - 314° (NW) 2,279 4.4 -22.4°
